Retour au catalogue

STARLINK-32429

ActifCommunicationsVLEO
NORAD 61682·PAYLOAD·🇺🇸 United States

Lancé Oct 26, 2024 depuis Cape Canaveral Space Force Station

Loading…

Prochains Passages (prochaines 24 heures)

TLE

FraisSource: CelesTrak SupGP

Époque: Sep 14, 2026, 22:33 UTC

1 61682C 24193X   26257.94006944  .00045226  00000+0  14544-2 0  2575
2 61682  53.1565 290.8782 0001068  96.7228  18.3840 15.31679197    19

Suivez STARLINK-32429 en temps réel avec AllMySat

Download on the App Store